When you browse on this site, cookies collect data to enhance your experience and personalize the content and advertising you see.
Visit our Privacy Policy to learn more. By continuing to use the site, you agree to this use of cookies and data.
  • In Germany
  • List of Countries
  • For 7 days
  • Water Temperature
  • Satellite Maps
  • Weather Map
  • Weather Widgets
  • user-avatar
    Login

    Hourly Weather Shusha

    Today, 16 December, Sunday

    Time Temperature Precipitation Wind Pressure Humidity
    00:00 +2°C° 0 mm 1 mps 663 mmHg 57%
    01:00 +2°C° 0 mm 1 mps 663 mmHg 57%
    02:00 +2°C° 0 mm 1 mps 663 mmHg 58%
    03:00 +1°C° 0 mm 2 mps 662 mmHg 58%
    04:00 +1°C° 0 mm 2 mps 662 mmHg 58%
    05:00 +1°C° 0 mm 2 mps 662 mmHg 58%
    06:00 +1°C° 0 mm 2 mps 662 mmHg 58%
    07:00 +3°C° 0 mm 1 mps 662 mmHg 55%
    08:00 +4°C° 0 mm 1 mps 663 mmHg 52%
    09:00 +5°C° 0 mm 1 mps 663 mmHg 49%
    10:00 +6°C° 0 mm 1 mps 663 mmHg 47%
    11:00 +6°C° 0 mm 2 mps 663 mmHg 45%
    12:00 +7°C° 0 mm 2 mps 663 mmHg 43%
    13:00 +7°C° 0 mm 2 mps 663 mmHg 44%
    14:00 +7°C° 0 mm 2 mps 663 mmHg 46%
    15:00 +6°C° 0 mm 2 mps 663 mmHg 48%
    16:00 +5°C° 0 mm 2 mps 663 mmHg 52%
    17:00 +5°C° 0 mm 1 mps 663 mmHg 57%
    18:00 +4°C° 0 mm 1 mps 663 mmHg 61%
    19:00 +3°C° 0 mm 1 mps 663 mmHg 64%
    20:00 +2°C° 0 mm 2 mps 663 mmHg 67%
    21:00 +1°C° 0 mm 2 mps 663 mmHg 70%
    22:00 +1°C° 0 mm 2 mps 663 mmHg 72%
    23:00 +1°C° 0 mm 2 mps 663 mmHg 75%

    Tomorrow, 17 December, Monday

    Time Temperature Precipitation Wind Pressure Humidity
    00:00 +1°C° 0 mm 2 mps 663 mmHg 77%
    01:00 -1°C° 0 mm 2 mps 663 mmHg 77%
    02:00 +1°C° 0 mm 1 mps 663 mmHg 78%
    03:00 +1°C° 0 mm 1 mps 663 mmHg 78%
    04:00 +1°C° 0 mm 1 mps 662 mmHg 78%
    05:00 +1°C° 0 mm 1 mps 662 mmHg 79%
    06:00 +1°C° 0 mm 1 mps 662 mmHg 79%
    07:00 +1°C° 0 mm 1 mps 662 mmHg 78%
    08:00 +2°C° 0 mm 1 mps 662 mmHg 76%
    09:00 +1°C° 0 mm 2 mps 663 mmHg 75%
    10:00 +2°C° 0 mm 2 mps 662 mmHg 74%
    11:00 +2°C° 0 mm 2 mps 662 mmHg 73%
    12:00 +3°C° 0 mm 2 mps 662 mmHg 73%
    13:00 +2°C° 0 mm 2 mps 661 mmHg 75%
    14:00 +2°C° 0 mm 2 mps 661 mmHg 77%
    15:00 +2°C° 0 mm 2 mps 661 mmHg 79%
    16:00 +2°C° 0.1 mm 2 mps 661 mmHg 82%
    17:00 +1°C° 0.1 mm 2 mps 661 mmHg 84%
    18:00 +1°C° 0.1 mm 2 mps 661 mmHg 87%
    19:00 +1°C° 0.2 mm 2 mps 661 mmHg 88%
    20:00 +1°C° 0.2 mm 1 mps 661 mmHg 89%
    21:00 +1°C° 0.2 mm 1 mps 661 mmHg 89%
    22:00 +1°C° 0.5 mm 1 mps 661 mmHg 90%
    23:00 +1°C° 0.5 mm 1 mps 660 mmHg 90%

    Day after tomorrow, 18 December, Tuesday

    Time Temperature Precipitation Wind Pressure Humidity
    00:00 +1°C° 0.5 mm 1 mps 660 mmHg 91%
    01:00 +1°C° 0.5 mm 1 mps 660 mmHg 91%
    02:00 +1°C° 0.5 mm 1 mps 660 mmHg 91%
    03:00 +1°C° 0.5 mm 1 mps 660 mmHg 91%
    04:00 +1°C° 0.6 mm 1 mps 660 mmHg 92%
    05:00 +1°C° 0.6 mm 1 mps 660 mmHg 92%
    06:00 +1°C° 0.6 mm 1 mps 660 mmHg 92%
    07:00 +1°C° 0.4 mm 1 mps 660 mmHg 91%
    08:00 +1°C° 0.4 mm 1 mps 661 mmHg 90%
    09:00 +2°C° 0.4 mm 1 mps 661 mmHg 88%
    10:00 +2°C° 0.1 mm 1 mps 661 mmHg 87%
    11:00 +2°C° 0.1 mm 2 mps 661 mmHg 85%
    12:00 +2°C° 0.1 mm 2 mps 661 mmHg 84%
    13:00 +2°C° 0 mm 2 mps 661 mmHg 84%
    14:00 +2°C° 0 mm 2 mps 661 mmHg 85%
    15:00 +2°C° 0 mm 2 mps 661 mmHg 85%
    16:00 +1°C° 0 mm 2 mps 661 mmHg 87%
    17:00 +2°C° 0 mm 1 mps 662 mmHg 90%
    18:00 +1°C° 0 mm 1 mps 662 mmHg 92%
    19:00 +1°C° 0 mm 1 mps 662 mmHg 91%
    20:00 +1°C° 0 mm 1 mps 662 mmHg 90%
    21:00 +1°C° 0 mm 1 mps 663 mmHg 89%
    22:00 +1°C° 0 mm 1 mps 663 mmHg 89%
    23:00 0°C° 0 mm 1 mps 663 mmHg 88%

    19 December, Wednesday

    Time Temperature Precipitation Wind Pressure Humidity
    00:00 0°C° 0 mm 1 mps 663 mmHg 88%
    01:00 0°C° 0 mm 1 mps 663 mmHg 87%
    02:00 0°C° 0 mm 1 mps 663 mmHg 87%
    03:00 0°C° 0 mm 1 mps 663 mmHg 87%
    04:00 0°C° 0 mm 1 mps 663 mmHg 86%
    05:00 0°C° 0 mm 1 mps 663 mmHg 86%
    06:00 0°C° 0 mm 1 mps 663 mmHg 86%
    07:00 +1°C° 0 mm 1 mps 663 mmHg 83%
    08:00 +1°C° 0 mm 1 mps 663 mmHg 80%
    09:00 +2°C° 0 mm 1 mps 664 mmHg 78%
    10:00 +3°C° 0 mm 1 mps 663 mmHg 76%
    11:00 +4°C° 0 mm 1 mps 663 mmHg 73%
    12:00 +4°C° 0 mm 2 mps 663 mmHg 71%
    13:00 +4°C° 0 mm 2 mps 663 mmHg 73%
    14:00 +4°C° 0 mm 2 mps 663 mmHg 74%
    15:00 +4°C° 0 mm 2 mps 662 mmHg 75%
    16:00 +4°C° 0 mm 1 mps 662 mmHg 79%
    17:00 +3°C° 0 mm 1 mps 662 mmHg 82%
    18:00 +2°C° 0 mm 1 mps 662 mmHg 85%
    19:00 +2°C° 0 mm 1 mps 662 mmHg 84%
    20:00 +1°C° 0 mm 1 mps 662 mmHg 84%
    21:00 0°C° 0 mm 0 mps 662 mmHg 83%
    22:00 0°C° 0 mm 0 mps 662 mmHg 83%
    23:00 0°C° 0 mm 0 mps 661 mmHg 83%

    20 December, Thursday

    Time Temperature Precipitation Wind Pressure Humidity
    00:00 0°C° 0 mm 0 mps 661 mmHg 84%
    01:00 +1°C° 0 mm 1 mps 661 mmHg 83%
    02:00 +1°C° 0 mm 1 mps 661 mmHg 83%
    03:00 +1°C° 0 mm 1 mps 660 mmHg 83%
    04:00 +1°C° 0 mm 1 mps 660 mmHg 83%
    05:00 +1°C° 0 mm 1 mps 660 mmHg 82%
    06:00 +1°C° 0 mm 1 mps 660 mmHg 82%
    07:00 +2°C° 0 mm 1 mps 660 mmHg 80%
    08:00 +2°C° 0 mm 1 mps 660 mmHg 77%
    09:00 +3°C° 0 mm 1 mps 660 mmHg 75%
    10:00 +4°C° 0 mm 1 mps 660 mmHg 73%
    11:00 +5°C° 0 mm 1 mps 660 mmHg 70%
    12:00 +6°C° 0 mm 1 mps 660 mmHg 68%
    13:00 +5°C° 0 mm 1 mps 660 mmHg 69%
    14:00 +5°C° 0 mm 1 mps 659 mmHg 70%
    15:00 +5°C° 0 mm 1 mps 659 mmHg 71%
    16:00 +4°C° 0 mm 1 mps 659 mmHg 75%
    17:00 +4°C° 0 mm 1 mps 659 mmHg 78%
    18:00 +2°C° 0 mm 0 mps 659 mmHg 82%
    19:00 +2°C° 0 mm 0 mps 659 mmHg 81%
    20:00 +2°C° 0 mm 0 mps 659 mmHg 81%
    21:00 +2°C° 0 mm 0 mps 660 mmHg 80%
    22:00 +1°C° 0 mm 0 mps 660 mmHg 80%
    23:00 +1°C° 0 mm 0 mps 660 mmHg 80%

    21 December, Friday

    Time Temperature Precipitation Wind Pressure Humidity
    00:00 +1°C° 0 mm 0 mps 660 mmHg 80%
    01:00 +1°C° 0.1 mm 0 mps 660 mmHg 80%
    02:00 +1°C° 0.1 mm 0 mps 660 mmHg 80%
    03:00 +1°C° 0.1 mm 0 mps 660 mmHg 80%
    04:00 +1°C° 0.1 mm 0 mps 660 mmHg 81%
    05:00 +1°C° 0.1 mm 0 mps 660 mmHg 82%
    06:00 +1°C° 0.1 mm 0 mps 660 mmHg 83%
    07:00 +1°C° 0.2 mm 0 mps 660 mmHg 82%
    08:00 +2°C° 0.2 mm 1 mps 660 mmHg 81%
    09:00 +3°C° 0.2 mm 1 mps 661 mmHg 81%
    10:00 +3°C° 0.2 mm 1 mps 661 mmHg 79%
    11:00 +3°C° 0.2 mm 1 mps 660 mmHg 77%
    12:00 +4°C° 0.2 mm 1 mps 660 mmHg 76%
    13:00 +3°C° 0.3 mm 1 mps 660 mmHg 78%
    14:00 +3°C° 0.3 mm 1 mps 660 mmHg 80%
    15:00 +3°C° 0.3 mm 1 mps 660 mmHg 82%
    16:00 +2°C° 0.3 mm 1 mps 660 mmHg 84%
    17:00 +2°C° 0.3 mm 1 mps 660 mmHg 87%
    18:00 +1°C° 0.3 mm 0 mps 660 mmHg 89%
    19:00 0°C° 0.3 mm 0 mps 660 mmHg 89%
    20:00 0°C° 0.3 mm 0 mps 660 mmHg 89%
    21:00 0°C° 0.3 mm 0 mps 661 mmHg 89%
    22:00 0°C° 0.2 mm 0 mps 661 mmHg 89%
    23:00 0°C° 0.2 mm 0 mps 661 mmHg 88%
    Show more